CAPE
0 0 0 0 0 0 0 0 0 0 0 0 0 0 0 0 0 0 97 1134 1083 1409 1389 1346 1264 1554 1609 1534 1618 1901 2270 2374 2295 2233 2224 2193 2166 2141 2006 2043 2060 2007 2085 1964 1752 1633 1575 1381 1314
0 0 0 0 0 0 0 0 0 0 0 0 0 0 0 0 67 100 899 1069 1173 1430 1300 1470 1350 1510 1651 1594 1695 2043 2307 2420 2376 2361 2331 2303 2259 2163 2153 2059 1998 2051 2094 2220 1753 1636 1547 1454 1352
0 0 0 0 0 0 0 0 0 0 0 0 0 0 0 0 504 151 930 1175 1243 1311 1298 1530 1408 1466 1633 1636 1716 1932 2210 1840 2298 2335 2475 2464 2336 2233 2118 1704 1548 1955 1953 2041 1851 1690 1641 1380 1113
0 0 0 0 0 0 0 0 0 0 0 0 0 0 0 81 780 720 995 1325 1512 1361 1367 1247 1326 1465 1642 1753 1819 1914 1983 1910 1814 2220 2454 2529 2328 2252 1705 1322 1115 1903 1978 1896 1808 1674 1465 1103 857
0 0 0 0 0 0 0 0 0 0 0 0 0 0 0 447 708 1007 1388 1450 1623 1525 1270 1289 1224 1438 1651 1821 1942 1944 1814 1774 1907 2132 2277 2230 1416 1253 769 595 772 1106 1484 1600 1416 1363 1173 883 686
0 0 0 0 0 0 0 0 0 0 0 0 0 0 0 362 1164 1390 1463 1553 1535 1635 1651 1704 1274 1354 1608 1672 1670 1679 1738 1670 1699 1694 1670 1511 1280 966 732 733 983 1194 998 956 1037 1004 811 739 563
0 0 0 0 0 0 0 0 0 0 0 0 0 0 0 430 1121 1527 1453 1403 1352 1403 1513 1747 1941 1606 1468 1538 1504 1511 1473 1560 1435 1264 1291 1118 932 700 695 805 1070 993 798 949 874 881 560 536 317
0 0 0 0 0 0 0 0 0 0 0 0 0 0 0 205 1068 1472 1452 1483 1389 1265 1422 1405 1989 2110 2074 2105 1388 1347 1416 1361 1422 1080 884 711 566 608 705 852 736 586 651 752 585 498 317 282 149
0 0 0 0 0 0 0 0 0 0 0 0 0 0 15 302 951 1349 963 921 1053 1109 1408 1350 1466 1646 1988 2140 1678 1204 1059 814 659 720 750 556 652 532 766 389 399 554 470 466 468 317 157 70 31
0 0 0 0 0 0 0 0 0 0 0 0 0 1 184 537 1049 1390 1239 1158 1059 1215 1016 1383 1346 1329 1356 1297 1095 1176 821 327 299 773 803 1099 642 601 277 104 80 300 281 374 348 161 51 64 50
0 0 0 0 0 0 0 0 0 0 0 0 0 0 23 506 1020 1299 1384 1261 1187 998 732 916 788 980 958 700 495 493 407 200 70 355 261 85 13 53 208 346 272 474 250 246 152 87 243 237 169
0 0 0 0 0 0 0 0 0 0 0 0 0 0 0 51 762 1134 1205 1218 1006 716 756 359 352 631 747 680 98 174 434 429 69 10 12 3 8 28 41 308 354 316 314 104 36 149 235 73 33
0 0 0 0 0 0 0 0 0 0 0 0 0 0 0 0 12 682 1026 1013 825 661 798 555 167 453 523 475 498 466 283 128 8 2 2 23 101 175 283 161 123 117 150 2 0 0 1 8 0
0 0 0 0 0 0 0 0 0 0 0 0 0 0 0 0 0 95 649 707 606 578 485 464 94 139 265 320 323 280 272 68 3 4 3 37 6 7 4 94 33 128 145 4 0 0 4 30 0
0 0 0 0 0 0 0 0 0 0 0 0 0 0 0 0 0 1 192 544 610 545 205 127 55 62 19 22 159 111 66 18 4 4 4 15 8 58 12 6 17 32 45 1 1 2 0 6 0
0 0 0 0 0 0 0 0 0 0 0 0 0 0 0 0 0 0 21 262 356 411 58 6 103 1 1 0 78 52 3 3 7 21 68 26 219 63 41 6 29 7 1 1 0 0 0 0 0
0 0 0 0 0 0 0 0 0 0 0 0 0 0 0 0 0 0 0 104 259 229 110 11 107 2 0 140 138 74 2 4 0 32 24 55 32 148 84 83 9 1 2 2 2 2 0 1 14
0 0 0 0 0 0 0 0 0 0 0 0 0 0 0 0 0 0 0 0 62 190 154 60 68 7 0 31 23 16 3 3 9 28 28 53 150 101 110 28 10 3 2 2 2 1 0 4 29
0 0 0 0 0 0 0 0 0 0 0 0 0 0 0 0 0 0 0 0 0 91 141 82 95 1 0 4 2 4 3 6 5 2 11 48 78 33 59 3 3 5 3 3 1 1 0 5 26
0 0 0 0 0 0 0 0 0 0 0 0 0 0 0 0 0 0 0 0 0 4 130 123 128 1 3 4 3 2 2 2 1 1 0 30 172 63 44 1 1 0 4 3 1 0 3 8 3
0 0 0 0 0 0 0 0 0 0 0 0 0 0 0 0 0 0 0 0 0 0 107 169 225 19 22 5 1 0 1 2 2 3 3 0 0 18 89 1 2 1 0 1 0 0 0 6 5
0 0 0 0 0 0 0 0 0 0 0 0 0 0 0 0 0 0 0 0 0 12 95 179 216 31 11 1 1 0 0 0 0 3 3 1 0 9 0 10 2 0 0 0 0 0 0 0 2
0 0 0 0 0 0 0 0 0 0 0 0 0 0 0 0 0 0 0 0 0 23 122 196 190 19 4 2 1 1 1 1 5 5 2 3 3 2 20 7 1 1 1 0 0 0 0 0 0
0 0 0 0 1 0 0 0 0 0 0 0 0 0 0 0 0 0 0 0 5 94 179 230 130 9 3 1 1 0 2 1 1 2 3 4 7 16 24 40 9 1 2 6 1 0 0 0 0
0 0 0 0 3 0 0 0 0 0 0 0 0 0 0 0 0 0 0 0 105 197 323 307 154 2 3 6 1 1 3 0 1 3 1 2 8 21 36 20 18 3 5 5 1 0 0 0 0
0 0 0 0 0 0 0 0 0 0 0 0 0 0 0 0 0 0 0 11 198 321 393 194 83 8 3 3 1 3 1 0 0 1 2 6 3 0 14 37 1 1 0 4 1 2 1 0 0
0 0 0 0 0 0 0 0 0 0 14 3 0 0 0 0 0 1 0 0 204 325 303 201 74 16 2 3 2 4 1 0 0 0 7 7 5 3 5 1 0 1 1 0 0 0 0 1 0
0 0 5 3 1 3 0 0 0 28 47 18 0 0 0 2 62 4 0 0 93 209 179 112 4 2 2 3 1 4 1 0 0 1 7 7 0 1 2 4 0 1 1 1 2 1 0 0 7
0 2 0 1 11 4 10 12 69 76 76 41 0 0 0 1 22 26 10 15 50 94 64 6 1 2 3 2 2 5 2 0 0 0 3 6 0 0 0 1 3 1 2 5 4 2 5 5 1
0 0 0 3 19 3 19 1 80 69 73 76 14 2 0 0 10 9 5 8 9 5 5 1 2 2 3 5 6 7 5 2 0 1 1 4 3 0 0 0 1 2 1 7 10 8 6 12 11
CIN
-0 -0 -0 -0 -0 -0 -0 -0 -0 -0 -0 -0 -0 -0 -0 -0 -0 -0 -333 -238 -283 -247 -238 -203 -185 -116 -83 -67 -59 -33 -18 -18 -25 -28 -24 -13 -10 -10 -5 -0 -1 -0 -0 -0 -0 -0 -0 -0 -0
-0 -0 -0 -0 -0 -0 -0 -0 -0 -0 -0 -0 -0 -0 -0 -0 -114 -200 -198 -269 -253 -244 -238 -172 -162 -112 -73 -72 -52 -22 -13 -11 -18 -19 -14 -5 -1 -0 -0 -0 -2 -1 -0 -0 -0 -0 -0 -0 -0
-0 -0 -0 -0 -0 -0 -0 -0 -0 -0 -0 -0 -0 -0 -0 -0 -228 -257 -229 -268 -275 -242 -230 -162 -152 -117 -64 -55 -48 -27 -13 -43 -15 -9 -1 -0 -0 -0 -0 -5 -13 -2 -1 -0 -0 -0 -0 -0 -0
-0 -0 -0 -0 -0 -0 -0 -0 -0 -0 -0 -0 -0 -0 -0 -370 -208 -221 -273 -261 -238 -243 -206 -192 -154 -110 -65 -30 -13 -7 -9 -21 -30 -10 -1 -0 -0 -0 -9 -19 -11 -2 -0 -0 -0 -0 -0 -0 -5
-0 -0 -0 -0 -0 -0 -0 -0 -0 -0 -0 -0 -0 -0 -0 -262 -347 -329 -281 -268 -226 -231 -231 -205 -181 -113 -61 -21 -3 -0 -3 -5 -3 -3 -2 -10 -17 -26 -51 -37 -10 -23 -8 -2 -1 -0 -0 -2 -13
-0 -0 -0 -0 -0 -0 -0 -0 -0 -0 -0 -0 -0 -0 -0 -388 -291 -310 -297 -250 -246 -227 -179 -150 -171 -119 -60 -29 -10 -2 -2 -4 -8 -27 -35 -25 -44 -69 -154 -64 -5 -7 -14 -23 -19 -4 -10 -8 -18
-0 -0 -0 -0 -0 -0 -0 -0 -0 -0 -0 -0 -0 -0 -0 -294 -293 -301 -271 -280 -269 -242 -201 -138 -86 -90 -66 -40 -26 -7 -8 -3 -14 -21 -22 -38 -51 -83 -87 -12 -4 -8 -21 -9 -6 -1 -20 -9 -38
-0 -0 -0 -0 -0 -0 -0 -0 -0 -0 -0 -0 -0 -0 -0 -315 -346 -293 -261 -244 -242 -243 -205 -180 -81 -36 -14 -1 -36 -25 -6 -5 -8 -31 -40 -62 -79 -64 -39 -9 -15 -31 -14 -2 -7 -1 -35 -22 -58
-0 -0 -0 -0 -0 -0 -0 -0 -0 -0 -0 -0 -0 -0 -158 -464 -344 -270 -327 -319 -284 -264 -197 -181 -122 -70 -25 -0 -11 -29 -24 -32 -43 -42 -31 -55 -14 -10 -0 -25 -49 -27 -26 -28 -22 -4 -49 -85 -94
-0 -0 -0 -0 -0 -0 -0 -0 -0 -0 -0 -0 -0 -66 -403 -322 -247 -215 -293 -294 -298 -256 -260 -170 -142 -98 -69 -33 -50 -15 -20 -53 -50 -3 -7 -0 -8 -10 -31 -82 -95 -32 -28 -32 -6 -12 -72 -78 -15
-0 -0 -0 -0 -0 -0 -0 -0 -0 -0 -0 -0 -0 -0 -232 -242 -190 -180 -216 -270 -313 -300 -315 -254 -240 -166 -120 -138 -144 -118 -77 -69 -83 -9 -20 -65 -86 -59 -36 -15 -10 -0 -9 -38 -5 -19 -8 -0 -0
-0 -0 -0 -0 -0 -0 -0 -0 -0 -0 -0 -0 -0 -0 -0 -304 -191 -195 -208 -245 -310 -345 -305 -354 -329 -231 -158 -144 -243 -197 -87 -37 -99 -58 -116 -5 -23 -70 -40 -4 -6 -0 -8 -11 -12 -1 -1 -15 -24
-0 -0 -0 -0 -0 -0 -0 -0 -0 -0 -0 -0 -0 -0 -0 -0 -203 -218 -204 -241 -275 -331 -286 -304 -378 -272 -208 -172 -117 -102 -120 -135 -67 -0 -0 -105 -40 -10 -1 -2 -5 -16 -1 -18 -0 -0 -10 -59 -0
-0 -0 -0 -0 -0 -0 -0 -0 -0 -0 -0 -0 -0 -0 -0 -0 -0 -275 -284 -315 -357 -335 -352 -326 -417 -353 -278 -208 -165 -134 -121 -169 -0 -0 -0 -99 -17 -0 -0 -17 -47 -0 -0 -0 -0 -0 -5 -69 -0
-0 -0 -0 -0 -0 -0 -0 -0 -0 -0 -0 -0 -0 -0 -0 -0 -0 -11 -313 -324 -368 -344 -391 -438 -442 -390 -318 -369 -217 -201 -196 -154 -0 -0 -0 -147 -0 -32 -0 -2 -76 -0 -1 -0 -0 -0 -1 -59 -0
-0 -0 -0 -0 -0 -0 -0 -0 -0 -0 -0 -0 -0 -0 -0 -0 -0 -0 -245 -371 -422 -363 -518 -520 -416 -0 -0 -0 -295 -256 -0 -0 -7 -82 -52 -113 -0 -15 -13 -2 -50 -24 -0 -0 -0 -0 -0 -0 -0
-0 -0 -0 -0 -0 -0 -0 -0 -0 -0 -0 -0 -0 -0 -0 -0 -0 -0 -0 -384 -413 -455 -467 -515 -418 -0 -0 -267 -259 -232 -0 -0 -8 -125 -150 -93 -39 -9 -0 -15 -0 -26 -0 -0 -0 -0 -0 -52 -63
-0 -0 -0 -0 -0 -0 -0 -0 -0 -0 -0 -0 -0 -0 -0 -0 -0 -0 -0 -0 -476 -497 -499 -478 -437 -226 -0 -326 -351 -71 -0 -0 -21 -95 -155 -110 -3 -7 -0 -40 -2 -0 -0 -0 -0 -0 -0 -52 -69
-0 -0 -0 -0 -0 -0 -0 -0 -0 -0 -0 -0 -0 -0 -0 -0 -0 -0 -0 -0 -0 -549 -544 -527 -456 -0 -0 -0 -0 -0 -0 -0 -0 -0 -8 -147 -80 -5 -0 -38 -0 -0 -0 -0 -0 -0 -0 -64 -42
-0 -0 -0 -0 -0 -0 -0 -0 -0 -0 -0 -0 -0 -0 -0 -0 -0 -0 -0 -0 -0 -208 -538 -555 -489 -0 -0 -0 -0 -0 -0 -0 -0 -0 -0 -31 -35 -3 -3 -0 -0 -0 -0 -0 -0 -0 -0 -14 -77
-0 -0 -0 -0 -0 -0 -0 -0 -0 -0 -0 -0 -0 -0 -0 -0 -0 -0 -0 -0 -0 -0 -577 -598 -531 -448 -478 -0 -0 -0 -0 -0 -0 -0 -0 -0 -0 -13 -0 -0 -0 -0 -0 -0 -0 -0 -0 -0 -0
-0 -0 -0 -0 -0 -0 -0 -0 -0 -0 -0 -0 -0 -0 -0 -0 -0 -0 -0 -0 -0 -536 -582 -556 -524 -523 -532 -0 -0 -0 -0 -0 -0 -0 -0 -0 -25 -9 -0 -2 -0 -0 -1 -0 -0 -0 -0 -0 -0
-0 -0 -0 -0 -0 -0 -0 -0 -0 -0 -0 -0 -0 -0 -0 -0 -0 -0 -0 -0 -0 -583 -596 -544 -530 -256 -0 -0 -0 -0 -0 -0 -0 -0 -0 -0 -0 -0 -0 -0 -0 -0 -0 -0 -0 -0 -0 -0 -0
-0 -0 -0 -0 -0 -0 -0 -0 -0 -0 -0 -0 -0 -0 -0 -0 -0 -0 -0 -0 -233 -567 -558 -539 -574 -280 -0 -0 -0 -0 -0 -0 -0 -0 -0 -0 -6 -2 -0 -0 -0 -0 -0 -0 -1 -0 -0 -0 -0
-0 -0 -0 -0 -0 -0 -0 -0 -0 -0 -0 -0 -0 -0 -0 -0 -0 -0 -0 -0 -491 -568 -548 -531 -611 -0 -0 -0 -0 -0 -0 -0 -0 -0 -0 -0 -2 -0 -0 -1 -6 -0 -0 -0 -1 -0 -0 -0 -0
-0 -0 -0 -0 -0 -0 -0 -0 -0 -0 -0 -0 -0 -0 -0 -0 -0 -0 -0 -406 -468 -535 -526 -612 -685 -313 -0 -0 -0 -0 -0 -0 -0 -0 -0 -0 -0 -0 -0 -0 -1 -0 -0 -0 -0 -0 -0 -0 -0
-0 -0 -0 -0 -0 -0 -0 -0 -0 -0 -18 -28 -0 -0 -0 -0 -7 -58 -0 -0 -473 -530 -548 -646 -698 -655 -0 -0 -0 -0 -0 -0 -0 -0 -0 -3 -0 -0 -0 -0 -0 -0 -0 -0 -0 -1 -3 -5 -0
-0 -0 -0 -0 -0 -0 -0 -0 -0 -15 -32 -22 -0 -0 -0 -0 -262 -317 -0 -0 -557 -493 -520 -584 -435 -0 -0 -0 -0 -0 -0 -0 -0 -0 -0 -2 -0 -0 -0 -5 -0 -0 -0 -0 -0 -0 -0 -0 -3
-0 -0 -0 -0 -0 -0 -0 -2 -5 -15 -16 -21 -0 -0 -2 -0 -98 -282 -427 -541 -531 -497 -508 -203 -0 -0 -0 -0 -0 -0 -0 -0 -0 -0 -0 -0 -0 -0 -0 -0 -0 -0 -0 -0 -0 -0 -0 -0 -0
-0 -0 -1 -0 -0 -0 -0 -0 -19 -9 -9 -8 -21 -0 -0 -0 -0 -0 -251 -431 -463 -27 -0 -0 -0 -0 -0 -0 -0 -0 -0 -0 -0 -0 -0 -0 -0 -0 -0 -0 -0 -0 -0 -0 -0 -0 -0 -0 -0
Wind_Speed
6 3 1 2 3 0 3 5 2 4 4 4 6 4 6 2 5 2 2 10 7 14 15 16 14 13 11 10 10 10 11 14 16 17 17 18 19 19 17 15 14 16 19 19 19 20 20 20 19
6 3 3 2 3 4 4 3 8 9 4 1 6 5 3 3 2 2 7 11 10 13 12 14 14 13 12 11 11 10 11 13 15 16 17 17 17 16 16 15 13 16 17 19 19 20 21 20 19
6 3 2 2 3 7 5 6 6 3 7 5 4 3 4 3 3 6 5 15 11 12 12 12 13 12 12 12 11 11 12 15 13 15 16 16 17 16 14 14 15 15 15 18 18 19 20 18 18
4 2 3 3 13 6 6 5 6 3 2 5 1 2 2 2 3 4 9 15 12 10 10 11 12 12 12 11 11 11 11 11 13 15 17 18 17 16 12 12 12 15 16 16 17 19 19 17 18
3 2 2 5 8 4 8 3 4 7 4 3 2 2 3 3 1 4 10 13 13 11 9 12 12 12 12 12 11 10 10 10 11 13 16 19 20 15 14 3 8 12 15 17 15 18 19 18 18
3 2 3 13 15 4 6 7 4 4 7 4 4 4 4 2 6 7 11 12 10 12 9 9 12 11 11 12 11 11 12 12 14 17 18 14 17 20 25 25 17 12 10 12 17 16 18 18 18
5 4 6 6 8 5 4 6 5 7 5 3 3 8 2 6 7 9 10 10 9 9 9 8 11 12 10 11 11 10 10 12 11 9 10 13 15 15 16 18 17 16 16 15 18 15 17 18 18
4 4 6 6 15 10 4 4 3 3 1 3 3 5 3 2 9 10 8 8 8 8 9 9 10 11 11 11 10 11 11 10 11 11 13 14 14 15 16 15 16 17 17 16 14 16 17 17 17
3 5 10 12 10 6 3 1 1 1 4 5 2 3 4 3 9 10 7 7 7 7 9 9 9 9 10 10 8 10 12 13 11 9 15 13 11 14 14 12 11 15 19 20 23 21 18 18 17
6 7 12 7 11 11 4 3 4 6 6 5 6 2 3 7 11 12 14 13 11 11 10 10 10 9 8 6 8 8 9 7 6 8 12 9 10 10 10 9 7 10 15 23 23 18 18 18 11
6 12 5 7 14 7 9 10 5 10 16 13 10 1 0 7 12 14 14 15 16 12 8 11 10 9 9 6 4 3 6 6 6 10 8 7 5 4 3 3 5 8 13 9 11 11 10 14 11
6 7 12 7 9 6 9 9 11 13 16 16 14 9 5 9 14 17 18 17 14 14 13 13 10 10 10 6 6 6 6 7 6 6 9 6 4 5 4 5 8 5 6 10 8 7 12 14 13
7 5 7 11 14 11 12 17 17 16 13 18 10 9 14 13 17 18 17 14 13 15 14 14 11 11 10 9 6 6 7 6 7 8 8 7 7 8 8 7 5 5 6 8 8 8 9 11 13
5 14 15 7 12 9 14 20 10 7 14 15 10 14 13 14 18 13 15 19 18 16 16 14 13 12 12 10 10 7 6 7 6 6 7 10 8 7 7 7 6 7 7 8 9 9 9 10 11
4 7 10 10 10 9 3 19 16 16 17 18 19 14 13 14 10 18 20 20 20 16 14 16 15 12 14 13 10 7 7 7 6 7 11 12 11 10 9 7 9 7 9 12 10 8 5 10 10
5 4 5 1 13 9 11 26 4 7 9 14 14 11 10 12 12 16 16 18 15 16 17 15 14 14 14 12 10 8 8 7 8 8 8 10 11 10 7 2 8 10 9 9 10 10 8 8 10
2 8 6 3 7 4 15 20 7 1 2 4 6 7 6 10 10 12 14 15 16 17 17 17 17 16 14 13 10 9 10 6 8 7 6 11 9 10 7 6 7 8 9 9 9 8 9 8 9
9 7 5 6 2 7 14 19 13 11 8 9 11 12 12 12 16 13 11 14 16 17 17 17 15 16 14 10 9 7 6 5 5 6 7 10 9 11 8 5 7 8 7 8 8 10 6 7 10
6 4 5 1 5 8 16 21 16 12 15 14 13 15 16 17 17 13 13 10 13 15 17 19 19 16 13 9 8 5 5 5 4 3 9 9 8 11 10 6 8 9 9 12 11 10 12 7 8
8 10 10 6 8 8 14 26 18 11 15 20 20 19 18 18 17 16 13 10 14 16 19 20 21 19 15 10 9 6 6 3 4 4 4 5 11 10 12 11 10 10 8 12 13 12 11 8 11
8 11 7 10 5 7 12 26 22 14 22 22 20 20 21 21 20 18 14 14 13 17 21 22 23 20 16 14 9 6 6 3 3 4 5 5 5 5 10 12 12 12 11 10 14 14 16 10 11
11 8 7 5 3 5 2 12 9 3 7 12 16 16 17 18 18 18 16 13 17 18 16 19 20 20 17 16 13 15 10 7 5 7 6 7 8 9 5 11 11 12 10 11 12 12 12 13 14
4 4 6 5 6 3 6 8 2 12 12 13 14 16 17 19 19 20 20 19 15 15 18 18 20 20 17 16 16 11 10 8 7 7 9 9 8 10 10 8 13 12 9 12 14 12 14 11 12
8 6 2 2 3 6 11 8 3 4 5 23 17 17 19 16 15 18 19 12 12 15 17 19 20 17 17 16 15 14 15 12 8 7 7 6 6 6 11 11 12 10 11 13 13 14 12 10 11
3 5 3 3 4 4 1 8 12 16 10 10 14 17 19 16 15 13 13 13 14 18 20 19 21 19 17 17 14 16 14 12 11 10 8 6 4 4 10 9 12 10 12 12 11 12 12 12 13
7 4 3 4 4 0 2 7 3 5 4 7 13 16 17 20 17 15 11 13 16 18 20 19 20 19 18 16 14 14 13 8 8 9 6 6 5 4 5 8 7 11 12 13 12 11 12 12 11
3 3 1 2 3 1 4 5 5 4 8 14 17 20 22 23 20 17 13 13 14 18 19 19 18 16 16 15 12 14 13 11 9 10 8 6 6 5 5 6 6 8 12 12 12 9 11 11 10
1 6 3 1 3 4 4 6 5 8 10 12 16 19 22 23 22 14 11 9 12 13 14 16 14 14 14 14 11 12 12 11 10 10 10 8 7 7 7 8 8 8 7 8 9 7 10 10 8
4 4 3 1 2 2 4 0 7 11 9 10 11 12 16 20 19 11 9 6 9 11 13 12 12 13 14 13 12 13 12 11 10 9 10 10 7 8 8 8 10 11 11 9 10 10 12 13 13
3 4 4 2 4 2 4 6 3 9 10 13 11 13 16 18 19 10 8 7 8 9 11 11 11 12 12 11 12 11 11 11 11 10 11 11 11 8 9 9 8 9 10 11 12 9 10 14 14
Wind_Direction
178 113 83 46 220 205 235 244 284 233 221 194 134 176 191 140 170 206 27 176 152 150 160 168 166 163 165 153 141 137 141 146 150 153 151 150 149 146 144 143 146 153 148 142 137 135 133 130 127
136 116 69 99 213 193 222 235 234 233 234 276 156 140 165 198 228 160 146 186 163 145 157 168 162 163 164 156 148 147 151 150 154 155 154 152 147 147 144 141 142 148 150 146 141 138 134 133 129
122 56 177 203 200 210 217 200 206 262 261 231 185 228 165 187 171 186 211 164 152 154 160 169 160 159 165 162 159 158 159 168 157 157 154 150 145 141 148 144 148 139 145 150 151 141 133 133 129
132 114 94 223 228 228 221 199 166 317 278 243 178 230 229 212 161 203 149 163 157 154 162 158 157 158 161 166 168 164 160 168 170 158 155 152 149 139 132 150 154 145 151 156 152 141 134 131 131
58 97 212 245 246 254 248 255 271 289 305 259 209 223 246 210 236 157 155 165 166 160 166 171 166 163 164 167 170 167 165 160 159 163 160 163 157 128 116 44 206 158 158 147 146 140 134 136 135
110 112 197 235 241 227 261 257 259 245 261 248 238 227 237 135 173 166 164 167 166 160 168 168 170 166 167 168 173 173 172 168 177 183 178 176 144 158 148 173 196 171 165 150 142 142 144 141 137
170 156 217 254 263 255 239 217 239 269 297 256 298 208 199 202 180 161 170 156 157 158 164 174 178 178 177 180 178 178 178 175 183 168 154 150 157 159 157 177 177 153 153 162 152 155 151 145 137
143 181 187 215 255 277 237 187 177 158 328 338 186 231 228 344 161 152 156 155 159 169 176 180 182 180 188 195 180 173 181 178 179 174 156 156 159 162 174 170 164 164 173 154 161 169 157 145 136
149 206 220 217 227 227 194 344 189 334 270 341 268 291 333 126 147 151 154 166 175 190 190 184 187 186 185 196 181 177 166 160 151 156 157 155 171 174 174 171 177 170 185 177 164 173 153 143 135
195 219 222 203 230 244 212 229 287 292 306 286 287 156 66 147 173 190 184 191 197 194 193 190 184 187 188 194 184 165 153 148 146 161 165 165 166 172 179 182 204 213 203 180 160 160 146 149 148
195 237 208 214 232 221 245 255 222 272 279 274 288 328 283 189 203 210 215 207 203 196 189 189 183 181 188 186 173 166 171 149 154 171 162 160 151 162 177 193 212 219 227 185 146 145 153 160 158
227 230 226 220 242 241 248 264 251 242 258 272 271 275 255 220 214 218 223 217 198 197 195 188 180 185 192 175 191 177 171 165 161 168 156 165 175 182 193 209 213 204 199 151 148 158 159 164 156
228 218 215 225 251 251 261 256 257 258 244 263 258 247 255 245 230 226 225 222 222 214 197 190 178 190 188 189 192 191 174 167 159 158 172 176 186 198 208 197 187 176 151 152 149 148 151 154 154
184 223 242 245 250 265 264 265 240 225 254 260 244 252 248 240 235 230 220 225 218 218 202 186 182 186 187 188 193 194 179 162 157 160 182 195 199 204 208 202 194 186 159 158 150 154 162 157 158
235 248 247 230 228 244 261 267 253 247 250 245 257 248 260 250 243 227 225 225 220 219 203 188 184 184 190 184 194 192 191 174 174 181 197 200 201 208 207 207 206 181 158 146 143 135 127 159 162
210 200 245 226 204 228 203 255 246 235 233 237 254 262 255 252 241 243 237 232 218 214 205 187 182 185 189 185 184 190 191 184 195 197 198 207 208 210 193 186 185 151 139 142 148 143 138 165 162
238 247 210 258 201 218 208 271 263 49 182 262 275 276 283 291 281 259 246 238 221 211 199 192 185 184 189 189 179 188 184 186 201 188 185 198 181 196 188 166 125 142 132 137 138 138 148 154 163
216 228 225 233 229 222 253 259 258 288 289 285 292 284 280 271 270 268 256 237 224 210 196 189 185 182 185 179 176 181 180 179 204 191 182 185 181 180 167 138 147 135 121 129 136 138 149 158 161
181 217 249 247 282 288 274 276 273 262 273 265 261 263 265 270 270 266 259 247 220 205 190 188 180 181 176 171 168 169 179 179 190 189 196 183 169 175 170 143 156 149 146 148 148 145 154 155 157
220 247 257 269 260 272 285 276 279 260 251 258 259 255 253 254 257 258 243 242 216 206 199 187 184 178 182 176 179 176 162 175 176 188 186 186 196 185 179 162 165 166 153 151 155 160 164 155 167
223 233 241 257 297 282 298 284 266 247 241 251 255 252 249 246 247 246 242 230 218 208 200 189 183 173 176 171 159 126 107 96 153 197 201 189 208 204 189 174 170 169 164 167 169 172 175 165 178
226 208 214 234 226 262 319 293 293 293 275 258 263 258 254 249 242 249 243 236 213 213 198 190 179 172 170 169 169 175 177 178 193 199 199 199 195 209 206 178 174 166 170 169 178 178 183 162 177
200 154 167 198 228 279 224 259 168 323 315 350 2 328 304 277 250 249 245 238 222 195 189 184 173 173 170 172 175 178 184 184 182 192 197 201 195 204 204 184 173 170 177 176 172 179 190 187 179
140 128 118 165 196 243 214 226 349 332 358 334 340 340 339 317 288 258 251 240 205 183 182 178 170 168 173 172 170 178 187 177 171 186 191 197 196 200 211 184 178 177 172 179 176 182 189 185 188
152 145 159 192 202 255 210 213 272 306 336 356 347 340 335 334 329 323 258 208 194 183 182 178 168 168 173 177 172 185 189 174 174 182 191 177 185 205 200 187 179 171 181 181 179 179 184 191 190
175 187 196 219 200 256 156 235 264 80 35 360 355 348 343 345 333 316 300 220 203 184 183 178 173 168 173 174 172 186 181 175 178 180 193 170 190 190 184 198 172 171 181 180 180 184 189 195 188
165 164 42 116 223 228 244 257 200 24 359 356 355 359 356 343 333 313 301 230 204 187 188 180 168 169 169 167 167 183 177 173 174 165 194 180 170 167 168 153 169 172 178 183 184 188 190 187 171
136 127 137 124 188 239 243 263 283 340 332 339 355 1 352 343 339 330 297 225 190 188 178 174 163 168 163 159 163 180 175 172 172 168 183 186 169 155 157 168 156 157 164 170 175 176 187 185 178
149 142 89 134 241 305 316 290 4 322 327 317 340 3 360 351 338 357 24 95 148 163 167 153 159 163 157 155 161 174 170 168 170 178 183 187 168 163 167 165 171 174 178 168 176 185 185 193 196
130 128 140 171 133 256 312 279 20 348 330 307 322 359 23 3 348 9 45 93 135 145 139 143 151 155 149 148 157 176 165 166 171 182 182 185 189 176 184 180 177 173 177 186 187 175 191 200 203